QIKCOM-1 (42983 NORAD) Tracking and Keplerian Element Data

This shows tracking and keplerian element data for the satellite.

Feedback or suggestion? Click here.




ElementValue
Catalog42983
NameQIKCOM-1
Epoch Orbit5873
Epoch Day312.71122778
Epoch Year2018
RAAN13.3037
Inclination51.6408
Eccentricity0.0004484
Argument of Perigee23.147
Mean Anonmoly336.9723
Mean Motion15.57231952
Decay Rate3.154E-05
L11 42983U 98067NF 18312.71122778 .00003154 00000-0 49202-4 0 9990
L22 42983 51.6408 13.3037 0004484 23.1470 336.9723 15.57231952 58732

Live tracking and technical data element details for QIKCOM-1 (NORAD 42983). QIKCOM-1 can be tracked NOW for your location showing map with azimuth and elevation plus other details from your city location.

Track the satellite on the map from your city or location and see movement details for azimuth, elevation, latitude, longitude, range, height, and movement on the map or in text.







IsCatalogInMostPopularTable: catalog: 42983, numindb: 142
Update: records affected: 1



GetName: 42983 QIKCOM-1

Hit Count: updated at: Mon, 12 Nov 2018 21:43:09 GMT